contact:dominique.lefevre@mio.osupytheas.fr, maurice.libes@osupytheas.fr, didier.mallarino@osupytheas.fr
Project:EMSO http://www.emso-fr.org/EMSO-France
Depth: 2436.0 m
Title:EMSO Ligure Ouest : Data MII capteur CSTAR
DateTime,Latitude,Longitude,Instrument_Serial,Reference_Counts,Signal_Counts,Corrected_Signal_raw_counts,Calculated_Beam_c_inverse_meters,Internal_thermistor_counts
DateTime,Latitude,Longitude,Instrument_Serial,Reference_Counts,Signal_Counts,Corrected_Signal_raw_counts,Calculated_Beam_c_inverse_meters,Internal_thermistor_counts
2020-03-13T00:02:04,42.805,6.029,CST-1368DR,6633,9293,15206,0.106,551
2020-03-13T00:05:06,42.805,6.029,CST-1368DR,6633,9301,15218,0.103,550
2020-03-13T00:08:08,42.805,6.029,CST-1368DR,6633,9302,15220,0.103,551
2020-03-13T00:11:10,42.805,6.029,CST-1368DR,6633,9301,15220,0.103,551
2020-03-13T00:14:11,42.805,6.029,CST-1368DR,6633,9302,15220,0.103,551
2020-03-13T00:17:13,42.805,6.029,CST-1368DR,6633,9302,15220,0.103,551
2020-03-13T00:20:15,42.805,6.029,CST-1368DR,6633,9302,15220,0.103,551
2020-03-13T00:23:16,42.805,6.029,CST-1368DR,6633,9302,15220,0.103,551
2020-03-13T00:26:18,42.805,6.029,CST-1368DR,6633,9302,15221,0.102,551
2020-03-13T00:29:20,42.805,6.029,CST-1368DR,6633,9299,15215,0.104,550
2020-03-13T00:32:21,42.805,6.029,CST-1368DR,6633,9301,15220,0.103,551
2020-03-13T00:35:23,42.805,6.029,CST-1368DR,6633,9301,15220,0.103,551
2020-03-13T00:38:25,42.805,6.029,CST-1368DR,6633,9301,15220,0.103,551
2020-03-13T00:41:26,42.805,6.029,CST-1368DR,6633,9300,15218,0.103,551
2020-03-13T00:44:28,42.805,6.029,CST-1368DR,6633,9302,15220,0.103,551
2020-03-13T00:47:30,42.805,6.029,CST-1368DR,6633,9302,15220,0.103,551
2020-03-13T00:50:32,42.805,6.029,CST-1368DR,6633,9298,15215,0.104,551
2020-03-13T00:53:33,42.805,6.029,CST-1368DR,6632,9294,15210,0.105,551
2020-03-13T00:56:35,42.805,6.029,CST-1368DR,6633,9300,15218,0.103,551
2020-03-13T00:59:37,42.805,6.029,CST-1368DR,6633,9301,15218,0.103,551
2020-03-13T01:02:38,42.805,6.029,CST-1368DR,6633,9300,15217,0.104,551
2020-03-13T01:05:40,42.805,6.029,CST-1368DR,6633,9301,15219,0.103,551
2020-03-13T01:08:42,42.805,6.029,CST-1368DR,6633,9301,15219,0.103,551
2020-03-13T01:11:44,42.805,6.029,CST-1368DR,6632,9300,15219,0.103,551
2020-03-13T01:14:45,42.805,6.029,CST-1368DR,6632,9300,15220,0.103,551
2020-03-13T01:17:47,42.805,6.029,CST-1368DR,6632,9300,15220,0.103,551
2020-03-13T01:20:49,42.805,6.029,CST-1368DR,6633,9301,15220,0.103,551
2020-03-13T01:23:50,42.805,6.029,CST-1368DR,6632,9301,15222,0.102,551
2020-03-13T01:26:52,42.805,6.029,CST-1368DR,6633,9301,15218,0.103,551
2020-03-13T01:29:54,42.805,6.029,CST-1368DR,6632,9301,15221,0.102,551
2020-03-13T01:32:56,42.805,6.029,CST-1368DR,6632,9301,15222,0.102,551
2020-03-13T01:35:57,42.805,6.029,CST-1368DR,6632,9300,15219,0.103,551
2020-03-13T01:38:59,42.805,6.029,CST-1368DR,6632,9301,15221,0.102,551
2020-03-13T01:42:01,42.805,6.029,CST-1368DR,6632,9300,15219,0.103,551
2020-03-13T01:45:02,42.805,6.029,CST-1368DR,6632,9299,15218,0.103,551
2020-03-13T01:48:04,42.805,6.029,CST-1368DR,6632,9301,15222,0.102,551
2020-03-13T01:51:06,42.805,6.029,CST-1368DR,6632,9301,15222,0.102,551
2020-03-13T01:54:08,42.805,6.029,CST-1368DR,6632,9300,15220,0.103,551
2020-03-13T01:57:09,42.805,6.029,CST-1368DR,6632,9301,15221,0.102,551
2020-03-13T02:00:11,42.805,6.029,CST-1368DR,6632,9299,15219,0.103,551
2020-03-13T02:03:13,42.805,6.029,CST-1368DR,6632,9300,15219,0.103,551
2020-03-13T02:06:14,42.805,6.029,CST-1368DR,6632,9300,15220,0.103,551
2020-03-13T02:09:16,42.805,6.029,CST-1368DR,6632,9301,15221,0.102,551
2020-03-13T02:12:18,42.805,6.029,CST-1368DR,6632,9300,15219,0.103,551
2020-03-13T02:15:19,42.805,6.029,CST-1368DR,6632,9300,15220,0.103,551
2020-03-13T02:18:21,42.805,6.029,CST-1368DR,6632,9301,15221,0.102,551
2020-03-13T02:21:23,42.805,6.029,CST-1368DR,6632,9300,15220,0.103,550
2020-03-13T02:24:24,42.805,6.029,CST-1368DR,6632,9298,15217,0.104,551
2020-03-13T02:27:26,42.805,6.029,CST-1368DR,6632,9301,15221,0.102,551
2020-03-13T02:30:28,42.805,6.029,CST-1368DR,6632,9300,15220,0.103,551
2020-03-13T02:33:30,42.805,6.029,CST-1368DR,6632,9301,15221,0.102,551
2020-03-13T02:36:31,42.805,6.029,CST-1368DR,6632,9300,15219,0.103,551
2020-03-13T02:39:33,42.805,6.029,CST-1368DR,6632,9300,15220,0.103,551
2020-03-13T02:42:35,42.805,6.029,CST-1368DR,6632,9300,15220,0.103,551
2020-03-13T02:45:36,42.805,6.029,CST-1368DR,6632,9300,15219,0.103,551
2020-03-13T02:48:38,42.805,6.029,CST-1368DR,6632,9300,15219,0.103,551
2020-03-13T02:51:40,42.805,6.029,CST-1368DR,6632,9298,15217,0.104,551
2020-03-13T02:54:42,42.805,6.029,CST-1368DR,6632,9300,15219,0.103,551
2020-03-13T02:57:43,42.805,6.029,CST-1368DR,6632,9301,15221,0.102,551
2020-03-13T03:00:45,42.805,6.029,CST-1368DR,6632,9301,15221,0.102,551
2020-03-13T03:03:47,42.805,6.029,CST-1368DR,6632,9300,15219,0.103,551
2020-03-13T03:06:48,42.805,6.029,CST-1368DR,6632,9301,15221,0.102,551
2020-03-13T03:09:50,42.805,6.029,CST-1368DR,6632,9300,15219,0.103,551
2020-03-13T03:12:52,42.805,6.029,CST-1368DR,6632,9299,15218,0.103,551
2020-03-13T03:15:54,42.805,6.029,CST-1368DR,6632,9300,15220,0.103,551
2020-03-13T03:18:55,42.805,6.029,CST-1368DR,6632,9300,15219,0.103,551
2020-03-13T03:21:57,42.805,6.029,CST-1368DR,6632,9299,15218,0.103,551
2020-03-13T03:24:59,42.805,6.029,CST-1368DR,6632,9300,15220,0.103,551
2020-03-13T03:28:00,42.805,6.029,CST-1368DR,6632,9300,15220,0.103,551
2020-03-13T03:31:02,42.805,6.029,CST-1368DR,6632,9300,15219,0.103,551
2020-03-13T03:34:04,42.805,6.029,CST-1368DR,6632,9300,15220,0.103,551
2020-03-13T03:37:06,42.805,6.029,CST-1368DR,6632,9300,15220,0.103,551
2020-03-13T03:40:07,42.805,6.029,CST-1368DR,6632,9296,15213,0.105,551
2020-03-13T03:43:09,42.805,6.029,CST-1368DR,6632,9300,15219,0.103,551
2020-03-13T03:46:11,42.805,6.029,CST-1368DR,6632,9299,15219,0.103,551
2020-03-13T03:49:12,42.805,6.029,CST-1368DR,6632,9300,15219,0.103,551
2020-03-13T03:52:14,42.805,6.029,CST-1368DR,6632,9300,15220,0.103,551
2020-03-13T03:55:16,42.805,6.029,CST-1368DR,6632,9299,15218,0.103,551
2020-03-13T03:58:17,42.805,6.029,CST-1368DR,6632,9299,15219,0.103,551
2020-03-13T04:01:19,42.805,6.029,CST-1368DR,6632,9300,15220,0.103,551
2020-03-13T04:04:21,42.805,6.029,CST-1368DR,6632,9300,15219,0.103,551
2020-03-13T04:07:23,42.805,6.029,CST-1368DR,6632,9299,15218,0.103,551
2020-03-13T04:10:24,42.805,6.029,CST-1368DR,6632,9300,15220,0.103,551
2020-03-13T04:13:26,42.805,6.029,CST-1368DR,6632,9300,15220,0.103,551
2020-03-13T04:16:28,42.805,6.029,CST-1368DR,6632,9299,15218,0.103,551
2020-03-13T04:19:29,42.805,6.029,CST-1368DR,6632,9299,15218,0.103,551
2020-03-13T04:22:31,42.805,6.029,CST-1368DR,6632,9300,15220,0.103,551
2020-03-13T04:25:33,42.805,6.029,CST-1368DR,6632,9299,15218,0.103,551
2020-03-13T04:28:34,42.805,6.029,CST-1368DR,6632,9300,15219,0.103,551
2020-03-13T04:31:36,42.805,6.029,CST-1368DR,6632,9301,15221,0.102,551
2020-03-13T04:34:38,42.805,6.029,CST-1368DR,6632,9299,15218,0.103,551
2020-03-13T04:37:40,42.805,6.029,CST-1368DR,6632,9300,15220,0.103,551
2020-03-13T04:40:41,42.805,6.029,CST-1368DR,6632,9301,15221,0.102,551
2020-03-13T04:43:43,42.805,6.029,CST-1368DR,6632,9300,15219,0.103,551
2020-03-13T04:46:45,42.805,6.029,CST-1368DR,6632,9300,15219,0.103,551
2020-03-13T04:49:46,42.805,6.029,CST-1368DR,6632,9300,15220,0.103,551
2020-03-13T04:52:48,42.805,6.029,CST-1368DR,6632,9300,15219,0.103,551
2020-03-13T04:55:50,42.805,6.029,CST-1368DR,6632,9300,15219,0.103,550
2020-03-13T04:58:52,42.805,6.029,CST-1368DR,6632,9299,15217,0.104,551
2020-03-13T05:01:53,42.805,6.029,CST-1368DR,6632,9299,15219,0.103,551
2020-03-13T05:04:55,42.805,6.029,CST-1368DR,6632,9299,15219,0.103,551
2020-03-13T05:07:57,42.805,6.029,CST-1368DR,6632,9298,15216,0.104,551
2020-03-13T05:10:58,42.805,6.029,CST-1368DR,6632,9300,15219,0.103,551
2020-03-13T05:14:00,42.805,6.029,CST-1368DR,6632,9298,15217,0.104,551
2020-03-13T05:17:02,42.805,6.029,CST-1368DR,6632,9299,15218,0.103,551
2020-03-13T05:20:03,42.805,6.029,CST-1368DR,6632,9300,15219,0.103,551
2020-03-13T05:23:05,42.805,6.029,CST-1368DR,6632,9298,15216,0.104,551
2020-03-13T05:26:07,42.805,6.029,CST-1368DR,6632,9297,15215,0.104,551
2020-03-13T05:29:09,42.805,6.029,CST-1368DR,6632,9300,15219,0.103,551
2020-03-13T05:32:10,42.805,6.029,CST-1368DR,6632,9300,15220,0.103,551
2020-03-13T05:35:12,42.805,6.029,CST-1368DR,6632,9297,15215,0.104,551
2020-03-13T05:38:14,42.805,6.029,CST-1368DR,6632,9299,15218,0.103,551
2020-03-13T05:41:15,42.805,6.029,CST-1368DR,6632,9300,15219,0.103,551
2020-03-13T05:44:17,42.805,6.029,CST-1368DR,6632,9299,15218,0.103,551
2020-03-13T05:47:19,42.805,6.029,CST-1368DR,6632,9299,15218,0.103,551
2020-03-13T05:50:21,42.805,6.029,CST-1368DR,6632,9299,15218,0.103,551
2020-03-13T05:53:22,42.805,6.029,CST-1368DR,6632,9297,15215,0.104,551
2020-03-13T05:56:24,42.805,6.029,CST-1368DR,6632,9300,15219,0.103,551
2020-03-13T05:59:26,42.805,6.029,CST-1368DR,6632,9300,15219,0.103,551
2020-03-13T06:02:28,42.805,6.029,CST-1368DR,6631,9300,15221,0.102,551
2020-03-13T06:05:29,42.805,6.029,CST-1368DR,6632,9299,15218,0.103,551
2020-03-13T06:08:31,42.805,6.029,CST-1368DR,6632,9299,15218,0.103,551
2020-03-13T06:11:33,42.805,6.029,CST-1368DR,6632,9299,15218,0.103,551
2020-03-13T06:14:34,42.805,6.029,CST-1368DR,6631,9298,15218,0.103,551
2020-03-13T06:17:36,42.805,6.029,CST-1368DR,6632,9299,15219,0.103,550
2020-03-13T06:20:38,42.805,6.029,CST-1368DR,6631,9299,15219,0.103,551
2020-03-13T06:23:39,42.805,6.029,CST-1368DR,6631,9300,15222,0.102,551
2020-03-13T06:26:41,42.805,6.029,CST-1368DR,6632,9299,15218,0.103,551
2020-03-13T06:29:43,42.805,6.029,CST-1368DR,6631,9299,15221,0.102,551
2020-03-13T06:32:45,42.805,6.029,CST-1368DR,6631,9298,15219,0.103,551
2020-03-13T06:35:46,42.805,6.029,CST-1368DR,6631,9298,15219,0.103,551
2020-03-13T06:38:48,42.805,6.029,CST-1368DR,6631,9299,15220,0.103,551
2020-03-13T06:41:50,42.805,6.029,CST-1368DR,6631,9298,15219,0.103,551
2020-03-13T06:44:52,42.805,6.029,CST-1368DR,6631,9299,15220,0.103,551
2020-03-13T06:47:53,42.805,6.029,CST-1368DR,6631,9299,15220,0.103,550
2020-03-13T06:50:55,42.805,6.029,CST-1368DR,6631,9299,15219,0.103,551
2020-03-13T06:53:57,42.805,6.029,CST-1368DR,6631,9299,15221,0.102,551
2020-03-13T06:56:58,42.805,6.029,CST-1368DR,6631,9298,15219,0.103,551
2020-03-13T07:00:00,42.805,6.029,CST-1368DR,6631,9298,15219,0.103,551
2020-03-13T07:03:02,42.805,6.029,CST-1368DR,6631,9297,15217,0.104,551
2020-03-13T07:06:03,42.805,6.029,CST-1368DR,6631,9283,15194,0.110,551
2020-03-13T07:09:05,42.805,6.029,CST-1368DR,6631,9298,15219,0.103,551
2020-03-13T07:12:07,42.805,6.029,CST-1368DR,6631,9299,15221,0.102,551
2020-03-13T07:15:09,42.805,6.029,CST-1368DR,6631,9298,15219,0.103,551
2020-03-13T07:18:10,42.805,6.029,CST-1368DR,6631,9299,15221,0.102,551
2020-03-13T07:21:12,42.805,6.029,CST-1368DR,6631,9299,15220,0.103,551
2020-03-13T07:24:14,42.805,6.029,CST-1368DR,6631,9299,15220,0.103,551
2020-03-13T07:27:15,42.805,6.029,CST-1368DR,6631,9299,15220,0.103,551
2020-03-13T07:30:17,42.805,6.029,CST-1368DR,6631,9298,15218,0.103,551
2020-03-13T07:33:19,42.805,6.029,CST-1368DR,6631,9296,15215,0.104,551
2020-03-13T07:36:20,42.805,6.029,CST-1368DR,6631,9299,15219,0.103,551
2020-03-13T07:39:22,42.805,6.029,CST-1368DR,6631,9298,15219,0.103,551
2020-03-13T07:42:24,42.805,6.029,CST-1368DR,6631,9298,15219,0.103,551
2020-03-13T07:45:26,42.805,6.029,CST-1368DR,6631,9299,15219,0.103,551
2020-03-13T07:48:28,42.805,6.029,CST-1368DR,6631,9299,15220,0.103,551
2020-03-13T07:51:29,42.805,6.029,CST-1368DR,6631,9299,15220,0.103,551
2020-03-13T07:54:31,42.805,6.029,CST-1368DR,6631,9298,15219,0.103,551
2020-03-13T07:57:33,42.805,6.029,CST-1368DR,6631,9298,15218,0.103,551
2020-03-13T08:00:34,42.805,6.029,CST-1368DR,6631,9298,15219,0.103,551
2020-03-13T08:03:36,42.805,6.029,CST-1368DR,6631,9298,15219,0.103,551
2020-03-13T08:06:38,42.805,6.029,CST-1368DR,6631,9299,15221,0.102,551
2020-03-13T08:09:39,42.805,6.029,CST-1368DR,6631,9299,15221,0.102,551
2020-03-13T08:12:41,42.805,6.029,CST-1368DR,6631,9298,15219,0.103,551
2020-03-13T08:15:43,42.805,6.029,CST-1368DR,6631,9298,15219,0.103,551
2020-03-13T08:18:44,42.805,6.029,CST-1368DR,6631,9299,15220,0.103,551
2020-03-13T08:21:46,42.805,6.029,CST-1368DR,6631,9298,15219,0.103,551
2020-03-13T08:24:48,42.805,6.029,CST-1368DR,6631,9299,15220,0.103,551
2020-03-13T08:27:50,42.805,6.029,CST-1368DR,6631,9295,15213,0.105,551
2020-03-13T08:30:51,42.805,6.029,CST-1368DR,6631,9299,15219,0.103,551
2020-03-13T08:33:53,42.805,6.029,CST-1368DR,6631,9299,15221,0.102,551
2020-03-13T08:36:55,42.805,6.029,CST-1368DR,6631,9299,15220,0.103,551
2020-03-13T08:39:56,42.805,6.029,CST-1368DR,6631,9299,15220,0.103,551
2020-03-13T08:42:58,42.805,6.029,CST-1368DR,6631,9299,15220,0.103,551
2020-03-13T08:46:00,42.805,6.029,CST-1368DR,6631,9298,15218,0.103,551
2020-03-13T08:49:01,42.805,6.029,CST-1368DR,6631,9299,15220,0.103,551
2020-03-13T08:52:03,42.805,6.029,CST-1368DR,6631,9299,15220,0.103,551
2020-03-13T08:55:05,42.805,6.029,CST-1368DR,6631,9298,15218,0.103,551
2020-03-13T08:58:06,42.805,6.029,CST-1368DR,6631,9299,15220,0.103,551
2020-03-13T09:01:08,42.805,6.029,CST-1368DR,6631,9299,15219,0.103,551
2020-03-13T09:04:10,42.805,6.029,CST-1368DR,6631,9299,15220,0.103,551
2020-03-13T09:07:12,42.805,6.029,CST-1368DR,6631,9299,15219,0.103,551
2020-03-13T09:10:14,42.805,6.029,CST-1368DR,6631,9300,15221,0.102,551
2020-03-13T09:13:15,42.805,6.029,CST-1368DR,6631,9299,15220,0.103,551
2020-03-13T09:16:17,42.805,6.029,CST-1368DR,6631,9298,15219,0.103,551
2020-03-13T09:19:19,42.805,6.029,CST-1368DR,6631,9299,15219,0.103,551
2020-03-13T09:22:20,42.805,6.029,CST-1368DR,6631,9297,15217,0.104,551
2020-03-13T09:25:22,42.805,6.029,CST-1368DR,6631,9298,15218,0.103,551
2020-03-13T09:28:24,42.805,6.029,CST-1368DR,6631,9297,15217,0.104,551
2020-03-13T09:31:25,42.805,6.029,CST-1368DR,6631,9298,15218,0.103,551
2020-03-13T09:34:27,42.805,6.029,CST-1368DR,6631,9298,15219,0.103,551
2020-03-13T09:37:29,42.805,6.029,CST-1368DR,6631,9297,15217,0.104,551
2020-03-13T09:40:30,42.805,6.029,CST-1368DR,6631,9298,15219,0.103,551
2020-03-13T09:43:32,42.805,6.029,CST-1368DR,6631,9297,15216,0.104,551
2020-03-13T09:46:34,42.805,6.029,CST-1368DR,6631,9298,15219,0.103,551
2020-03-13T09:49:35,42.805,6.029,CST-1368DR,6631,9285,15197,0.109,550
2020-03-13T09:52:37,42.805,6.029,CST-1368DR,6631,9298,15218,0.103,551
2020-03-13T09:55:39,42.805,6.029,CST-1368DR,6631,9298,15219,0.103,551
2020-03-13T09:58:40,42.805,6.029,CST-1368DR,6631,9297,15216,0.104,551
2020-03-13T10:01:42,42.805,6.029,CST-1368DR,6631,9297,15217,0.104,551
2020-03-13T10:04:44,42.805,6.029,CST-1368DR,6631,9297,15217,0.104,551
2020-03-13T10:07:45,42.805,6.029,CST-1368DR,6631,9297,15217,0.104,551
2020-03-13T10:10:47,42.805,6.029,CST-1368DR,6631,9297,15216,0.104,551
2020-03-13T10:13:49,42.805,6.029,CST-1368DR,6631,9298,15218,0.103,551
2020-03-13T10:16:51,42.805,6.029,CST-1368DR,6631,9296,15215,0.104,551
2020-03-13T10:19:52,42.805,6.029,CST-1368DR,6631,9297,15217,0.104,551
2020-03-13T10:22:54,42.805,6.029,CST-1368DR,6631,9297,15217,0.104,550
2020-03-13T10:25:56,42.805,6.029,CST-1368DR,6631,9297,15217,0.104,551
2020-03-13T10:28:57,42.805,6.029,CST-1368DR,6631,9295,15214,0.104,551
2020-03-13T10:31:59,42.805,6.029,CST-1368DR,6631,9297,15217,0.104,551
2020-03-13T10:35:01,42.805,6.029,CST-1368DR,6631,9297,15216,0.104,551
2020-03-13T10:38:03,42.805,6.029,CST-1368DR,6631,9296,15216,0.104,551
2020-03-13T10:41:04,42.805,6.029,CST-1368DR,6631,9297,15217,0.104,551
2020-03-13T10:44:06,42.805,6.029,CST-1368DR,6631,9298,15218,0.103,551
2020-03-13T10:47:08,42.805,6.029,CST-1368DR,6631,9297,15217,0.104,551
2020-03-13T10:50:09,42.805,6.029,CST-1368DR,6631,9298,15218,0.103,551
2020-03-13T10:53:11,42.805,6.029,CST-1368DR,6631,9297,15217,0.104,551
2020-03-13T10:56:13,42.805,6.029,CST-1368DR,6630,9297,15219,0.103,551
2020-03-13T10:59:14,42.805,6.029,CST-1368DR,6630,9297,15219,0.103,551
2020-03-13T11:02:16,42.805,6.029,CST-1368DR,6631,9297,15217,0.104,551
2020-03-13T11:05:18,42.805,6.029,CST-1368DR,6630,9297,15218,0.103,551
2020-03-13T11:08:19,42.805,6.029,CST-1368DR,6630,9297,15218,0.103,551
2020-03-13T11:11:21,42.805,6.029,CST-1368DR,6630,9298,15220,0.103,551
2020-03-13T11:14:23,42.805,6.029,CST-1368DR,6631,9297,15217,0.104,551
2020-03-13T11:17:25,42.805,6.029,CST-1368DR,6630,9297,15220,0.103,551
2020-03-13T11:20:26,42.805,6.029,CST-1368DR,6630,9297,15219,0.103,551
2020-03-13T11:23:28,42.805,6.029,CST-1368DR,6630,9298,15220,0.103,551
2020-03-13T11:26:30,42.805,6.029,CST-1368DR,6630,9297,15219,0.103,551
2020-03-13T11:29:31,42.805,6.029,CST-1368DR,6630,9297,15219,0.103,551
2020-03-13T11:32:33,42.805,6.029,CST-1368DR,6630,9297,15220,0.103,551
2020-03-13T11:35:35,42.805,6.029,CST-1368DR,6630,9296,15217,0.104,551
2020-03-13T11:38:36,42.805,6.029,CST-1368DR,6630,9297,15219,0.103,551
2020-03-13T11:41:38,42.805,6.029,CST-1368DR,6630,9296,15218,0.103,551
2020-03-13T11:44:40,42.805,6.029,CST-1368DR,6630,9297,15220,0.103,551
2020-03-13T11:47:41,42.805,6.029,CST-1368DR,6630,9297,15219,0.103,551
2020-03-13T11:50:43,42.805,6.029,CST-1368DR,6630,9297,15219,0.103,551
2020-03-13T11:53:45,42.805,6.029,CST-1368DR,6631,9298,15219,0.103,551
2020-03-13T11:56:47,42.805,6.029,CST-1368DR,6630,9297,15220,0.103,551
2020-03-13T11:59:48,42.805,6.029,CST-1368DR,6630,9296,15217,0.104,551
2020-03-13T12:02:50,42.805,6.029,CST-1368DR,6630,9296,15217,0.104,551
2020-03-13T12:05:52,42.805,6.029,CST-1368DR,6630,9297,15220,0.103,551
2020-03-13T12:08:54,42.805,6.029,CST-1368DR,6630,9296,15217,0.104,551
2020-03-13T12:11:55,42.805,6.029,CST-1368DR,6630,9295,15215,0.104,551
2020-03-13T12:14:57,42.805,6.029,CST-1368DR,6630,9296,15218,0.103,550
2020-03-13T12:17:59,42.805,6.029,CST-1368DR,6630,9296,15218,0.103,551
2020-03-13T12:21:01,42.805,6.029,CST-1368DR,6630,9297,15218,0.103,551
2020-03-13T12:24:02,42.805,6.029,CST-1368DR,6630,9297,15219,0.103,551
2020-03-13T12:27:04,42.805,6.029,CST-1368DR,6630,9296,15218,0.103,551
2020-03-13T12:30:06,42.805,6.029,CST-1368DR,6630,9293,15213,0.105,551
2020-03-13T12:33:07,42.805,6.029,CST-1368DR,6630,9296,15217,0.104,551
2020-03-13T12:36:09,42.805,6.029,CST-1368DR,6630,9296,15218,0.103,551
2020-03-13T12:39:11,42.805,6.029,CST-1368DR,6630,9296,15217,0.104,551
2020-03-13T12:42:13,42.805,6.029,CST-1368DR,6630,9295,15215,0.104,551
2020-03-13T12:45:15,42.805,6.029,CST-1368DR,6630,9295,15215,0.104,551
2020-03-13T12:48:16,42.805,6.029,CST-1368DR,6630,9295,15215,0.104,551
2020-03-13T12:51:18,42.805,6.029,CST-1368DR,6630,9295,15216,0.104,551
2020-03-13T12:54:20,42.805,6.029,CST-1368DR,6630,9297,15219,0.103,551
2020-03-13T12:57:21,42.805,6.029,CST-1368DR,6630,9296,15217,0.104,551
2020-03-13T13:00:23,42.805,6.029,CST-1368DR,6630,9293,15213,0.105,551
2020-03-13T13:03:25,42.805,6.029,CST-1368DR,6630,9295,15216,0.104,551
2020-03-13T13:06:26,42.805,6.029,CST-1368DR,6630,9296,15217,0.104,551
2020-03-13T13:09:28,42.805,6.029,CST-1368DR,6630,9295,15216,0.104,551
2020-03-13T13:12:30,42.805,6.029,CST-1368DR,6630,9294,15215,0.104,551
2020-03-13T13:15:32,42.805,6.029,CST-1368DR,6630,9297,15218,0.103,551
2020-03-13T13:18:33,42.805,6.029,CST-1368DR,6630,9297,15219,0.103,551
2020-03-13T13:21:35,42.805,6.029,CST-1368DR,6630,9296,15218,0.103,551
2020-03-13T13:24:37,42.805,6.029,CST-1368DR,6630,9297,15218,0.103,551
2020-03-13T13:27:38,42.805,6.029,CST-1368DR,6630,9296,15218,0.103,551
2020-03-13T13:30:40,42.805,6.029,CST-1368DR,6630,9295,15216,0.104,551
2020-03-13T13:33:42,42.805,6.029,CST-1368DR,6630,9298,15220,0.103,551
2020-03-13T13:36:43,42.805,6.029,CST-1368DR,6630,9297,15218,0.103,551
2020-03-13T13:39:45,42.805,6.029,CST-1368DR,6630,9296,15218,0.103,551
2020-03-13T13:42:47,42.805,6.029,CST-1368DR,6630,9295,15216,0.104,551
2020-03-13T13:45:48,42.805,6.029,CST-1368DR,6630,9295,15215,0.104,551
2020-03-13T13:48:50,42.805,6.029,CST-1368DR,6630,9296,15218,0.103,551
2020-03-13T13:51:52,42.805,6.029,CST-1368DR,6630,9293,15212,0.105,551
2020-03-13T13:54:53,42.805,6.029,CST-1368DR,6630,9295,15216,0.104,551
2020-03-13T13:57:55,42.805,6.029,CST-1368DR,6630,9297,15219,0.103,551
2020-03-13T14:00:56,42.805,6.029,CST-1368DR,6630,9296,15218,0.103,551
2020-03-13T14:03:58,42.805,6.029,CST-1368DR,6630,9295,15215,0.104,551
2020-03-13T14:07:00,42.805,6.029,CST-1368DR,6630,9293,15212,0.105,550
2020-03-13T14:10:02,42.805,6.029,CST-1368DR,6630,9297,15218,0.103,551
2020-03-13T14:13:03,42.805,6.029,CST-1368DR,6630,9293,15212,0.105,551
2020-03-13T14:16:05,42.805,6.029,CST-1368DR,6630,9297,15219,0.103,551
2020-03-13T14:19:07,42.805,6.029,CST-1368DR,6630,9293,15213,0.105,551
2020-03-13T14:22:09,42.805,6.029,CST-1368DR,6630,9296,15217,0.104,551
2020-03-13T14:25:10,42.805,6.029,CST-1368DR,6630,9296,15218,0.103,551
2020-03-13T14:28:12,42.805,6.029,CST-1368DR,6630,9296,15218,0.103,551
2020-03-13T14:31:14,42.805,6.029,CST-1368DR,6630,9297,15218,0.103,551
2020-03-13T14:34:15,42.805,6.029,CST-1368DR,6630,9294,15214,0.104,551
2020-03-13T14:37:17,42.805,6.029,CST-1368DR,6630,9295,15215,0.104,551
2020-03-13T14:40:19,42.805,6.029,CST-1368DR,6630,9295,15216,0.104,551
2020-03-13T14:43:20,42.805,6.029,CST-1368DR,6630,9296,15217,0.104,551
2020-03-13T14:46:22,42.805,6.029,CST-1368DR,6630,9295,15216,0.104,551
2020-03-13T14:49:24,42.805,6.029,CST-1368DR,6630,9294,15215,0.104,551
2020-03-13T14:52:26,42.805,6.029,CST-1368DR,6630,9296,15218,0.103,551
2020-03-13T14:55:28,42.805,6.029,CST-1368DR,6630,9293,15212,0.105,551
2020-03-13T14:58:29,42.805,6.029,CST-1368DR,6630,9292,15211,0.105,551
2020-03-13T15:01:31,42.805,6.029,CST-1368DR,6630,9296,15218,0.103,551
2020-03-13T15:04:33,42.805,6.029,CST-1368DR,6630,9294,15213,0.105,551
2020-03-13T15:07:34,42.805,6.029,CST-1368DR,6630,9294,15215,0.104,551
2020-03-13T15:10:36,42.805,6.029,CST-1368DR,6630,9294,15214,0.104,551
2020-03-13T15:13:38,42.805,6.029,CST-1368DR,6630,9296,15217,0.104,551
2020-03-13T15:16:39,42.805,6.029,CST-1368DR,6630,9295,15216,0.104,551
2020-03-13T15:19:41,42.805,6.029,CST-1368DR,6630,9295,15216,0.104,551
2020-03-13T15:22:43,42.805,6.029,CST-1368DR,6630,9296,15217,0.104,551
2020-03-13T15:25:45,42.805,6.029,CST-1368DR,6630,9296,15217,0.104,551
2020-03-13T15:28:47,42.805,6.029,CST-1368DR,6630,9296,15217,0.104,551
2020-03-13T15:31:48,42.805,6.029,CST-1368DR,6629,9296,15220,0.103,551
2020-03-13T15:34:50,42.805,6.029,CST-1368DR,6629,9295,15218,0.103,551
2020-03-13T15:37:52,42.805,6.029,CST-1368DR,6629,9295,15218,0.103,551
2020-03-13T15:40:53,42.805,6.029,CST-1368DR,6629,9296,15219,0.103,551
2020-03-13T15:43:55,42.805,6.029,CST-1368DR,6629,9296,15220,0.103,551
2020-03-13T15:46:57,42.805,6.029,CST-1368DR,6629,9295,15218,0.103,551
2020-03-13T15:49:59,42.805,6.029,CST-1368DR,6629,9295,15218,0.103,551
2020-03-13T15:53:00,42.805,6.029,CST-1368DR,6629,9295,15218,0.103,551
2020-03-13T15:56:02,42.805,6.029,CST-1368DR,6630,9295,15216,0.104,551
2020-03-13T15:59:04,42.805,6.029,CST-1368DR,6630,9296,15217,0.104,551
2020-03-13T16:02:05,42.805,6.029,CST-1368DR,6629,9296,15219,0.103,551
2020-03-13T16:05:07,42.805,6.029,CST-1368DR,6629,9296,15219,0.103,551
2020-03-13T16:08:09,42.805,6.029,CST-1368DR,6629,9296,15219,0.103,551
2020-03-13T16:11:11,42.805,6.029,CST-1368DR,6629,9295,15218,0.103,551
2020-03-13T16:14:12,42.805,6.029,CST-1368DR,6629,9296,15219,0.103,551
2020-03-13T16:17:14,42.805,6.029,CST-1368DR,6629,9295,15218,0.103,551
2020-03-13T16:20:16,42.805,6.029,CST-1368DR,6629,9295,15218,0.103,551
2020-03-13T16:23:17,42.805,6.029,CST-1368DR,6629,9294,15217,0.104,551
2020-03-13T16:26:19,42.805,6.029,CST-1368DR,6629,9295,15218,0.103,551
2020-03-13T16:29:21,42.805,6.029,CST-1368DR,6629,9295,15218,0.103,551
2020-03-13T16:32:23,42.805,6.029,CST-1368DR,6629,9295,15218,0.103,551
2020-03-13T16:35:24,42.805,6.029,CST-1368DR,6629,9295,15218,0.103,551
2020-03-13T16:38:26,42.805,6.029,CST-1368DR,6629,9296,15219,0.103,551
2020-03-13T16:41:28,42.805,6.029,CST-1368DR,6629,9295,15218,0.103,551
2020-03-13T16:44:29,42.805,6.029,CST-1368DR,6629,9296,15219,0.103,551
2020-03-13T16:47:31,42.805,6.029,CST-1368DR,6629,9295,15218,0.103,551
2020-03-13T16:50:33,42.805,6.029,CST-1368DR,6629,9295,15217,0.104,551
2020-03-13T16:53:34,42.805,6.029,CST-1368DR,6629,9296,15220,0.103,551